DateTimeUTC,F1_A11,F1_S11,BsB_S11,BsG_S11,BsR_S11,BbsB_S11,BbsG_S11,BbsR_S11,BaB_A11,BaG_A11,BaR_A11,Tu_S11,T_S11,Uu_S11,U_S11,P_S11,T1_A11
2021-07-29T05:00:00Z,00000200,20000000,,,,,,,-000.14,-000.07,0000.03,18.2,25.1,06.5,04.3,0685.7,31.0
2021-07-29T05:01:00Z,00000200,20000000,,,,,,,-000.30,0000.19,-000.59,18.2,25.1,06.6,04.3,0685.7,31.1
2021-07-29T05:02:00Z,00000200,20000000,,,,,,,-000.29,-000.38,0000.04,18.2,25.1,06.6,04.3,0685.7,31.1
2021-07-29T05:03:00Z,00000200,60000000,,,,,,,0000.29,0000.18,0000.08,18.2,25.2,06.6,04.3,0685.7,31.1
2021-07-29T05:04:00Z,00000200,40000000,0003.71,0002.90,0001.44,0000.44,0000.45,0000.31,0000.07,0000.25,0000.04,18.5,25.0,06.1,04.1,0686.5,31.1
2021-07-29T05:05:00Z,00000200,00000000,0003.91,0003.17,0001.62,0000.46,0000.45,0000.33,0000.43,0000.44,0000.36,18.6,25.0,06.0,04.0,0686.6,31.1
2021-07-29T05:06:00Z,00000200,00000000,0003.83,0002.62,0001.92,-000.21,0000.53,0000.27,0000.21,0000.14,0000.13,18.6,25.0,06.0,04.0,0686.6,31.1
2021-07-29T05:07:00Z,00000200,00000000,0004.22,0003.24,0001.72,0000.89,0000.50,0000.19,0000.52,0000.28,0000.14,18.5,25.0,05.9,04.0,0686.5,31.1
2021-07-29T05:08:00Z,00000200,00000000,0003.31,0002.93,0001.84,0000.03,0000.59,0000.41,0000.13,0000.19,0000.56,18.5,25.0,05.9,04.0,0686.5,31.1
2021-07-29T05:09:00Z,00000200,00000000,0003.71,0002.92,0001.76,0000.60,0000.46,0000.31,0000.57,0000.47,0000.00,18.5,25.0,05.8,03.9,0686.5,31.1
2021-07-29T05:10:00Z,00000200,00000000,0003.53,0002.66,0001.58,0000.03,0000.54,-000.10,0000.08,0000.39,0000.30,18.5,24.9,05.7,03.9,0686.5,31.1
2021-07-29T05:11:00Z,00000200,00000000,0003.11,0002.60,0001.52,0000.06,0000.35,0000.24,0000.73,0000.05,0000.28,18.4,24.9,05.7,03.8,0686.4,31.1
2021-07-29T05:12:00Z,00000200,00000000,0003.23,0002.39,0001.47,0000.74,0000.43,0000.16,-000.01,0000.08,0000.32,18.4,24.9,05.7,03.8,0686.4,31.0
2021-07-29T05:13:00Z,00000200,00000000,0002.86,0002.59,0001.20,0000.61,0000.66,0000.24,0000.30,0000.35,-000.16,18.4,24.9,05.7,03.8,0686.4,31.0
2021-07-29T05:14:00Z,00000200,00000000,0002.78,0002.71,0001.68,0000.21,0000.36,-000.18,0000.50,0000.61,0000.25,18.4,24.9,05.6,03.8,0686.4,31.1
2021-07-29T05:15:00Z,00000200,00000000,0003.68,0002.90,0001.64,0000.86,0000.33,0000.68,0000.32,0000.42,0000.34,18.4,24.9,05.6,03.8,0686.4,31.1
2021-07-29T05:16:00Z,00000200,00000000,0003.29,0002.97,0001.54,0000.71,0000.28,0000.14,0000.57,0000.23,0000.51,18.4,24.9,05.6,03.7,0686.4,31.0
2021-07-29T05:17:00Z,00000200,00000000,0003.43,0002.76,0001.62,0000.10,0000.44,0000.55,0000.28,0000.42,0000.06,18.4,24.9,05.5,03.7,0686.3,31.1
2021-07-29T05:18:00Z,00000200,00000000,0003.61,0003.22,0001.41,0000.72,0000.09,0000.47,0000.06,0000.10,-000.01,18.5,24.9,05.5,03.7,0686.3,31.1
2021-07-29T05:19:00Z,00000200,00000000,0004.10,0002.80,0001.26,0000.23,0000.43,0000.32,0000.77,0000.76,0000.44,18.5,24.9,05.4,03.7,0686.3,31.1
2021-07-29T05:20:00Z,00000200,00000000,0003.17,0002.87,0001.84,0000.37,0000.30,0000.48,0000.43,0000.34,0000.44,18.5,24.9,05.5,03.7,0686.2,31.1
2021-07-29T05:21:00Z,00000200,00000000,0002.79,0002.64,0001.65,0000.66,0000.40,0000.05,0000.37,0000.21,0000.24,18.4,24.9,05.5,03.7,0686.2,31.1
2021-07-29T05:22:00Z,00000200,00000000,0002.76,0002.32,0000.90,0000.73,0000.55,0000.27,0000.21,0000.69,0000.36,18.4,24.9,05.4,03.6,0686.2,31.1
2021-07-29T05:23:00Z,00000200,00000000,0003.00,0002.01,0001.69,0000.26,0000.50,0000.20,0000.47,-000.13,0000.29,18.4,24.9,05.4,03.6,0686.2,31.1
2021-07-29T05:24:00Z,00000200,00000000,0002.65,0002.31,0001.07,0000.71,0000.25,0000.28,0000.18,0000.52,0000.11,18.4,24.9,05.4,03.7,0686.2,31.0
2021-07-29T05:25:00Z,00000200,00000000,0002.95,0002.49,0001.35,-000.45,0000.46,0000.18,0000.37,-000.26,-000.10,18.4,24.9,05.4,03.7,0686.2,31.0
2021-07-29T05:26:00Z,00000200,00000000,0003.23,0002.05,0001.43,0000.92,0000.53,0000.54,0000.42,0000.62,0000.40,18.4,24.9,05.4,03.6,0686.2,31.0
2021-07-29T05:27:00Z,00000200,00000000,0002.81,0002.02,0001.11,0000.53,0000.73,0000.23,-000.07,0000.19,0000.16,18.4,24.9,05.3,03.5,0686.2,31.0
2021-07-29T05:28:00Z,00000200,00000000,0003.39,0001.95,0000.98,0000.34,0000.47,0000.03,0000.83,0000.63,0000.25,18.3,24.8,05.4,03.6,0686.2,31.1
2021-07-29T05:29:00Z,00000200,00000000,0002.72,0001.94,0001.45,0000.68,0000.47,0000.15,-000.07,-000.08,0000.20,18.3,24.8,05.5,03.7,0686.1,31.0
2021-07-29T05:30:00Z,00000200,00000000,0002.89,0002.52,0001.12,0000.37,0000.21,0000.58,0000.66,0000.18,0000.40,18.3,24.8,05.5,03.7,0686.1,31.0
2021-07-29T05:31:00Z,00000200,00000000,0002.36,0002.40,0001.42,0000.22,0000.33,0000.39,0000.59,0001.31,0000.46,18.3,24.8,05.4,03.6,0686.1,31.0
2021-07-29T05:32:00Z,00000200,00000000,0003.42,0002.56,0001.12,0000.72,0000.57,0000.24,0000.31,-000.22,0000.22,18.4,24.9,05.4,03.7,0686.1,31.0
2021-07-29T05:33:00Z,00000200,00000000,0003.01,0002.58,0001.15,0000.65,0000.41,0000.30,0000.00,0000.36,0000.18,18.4,24.9,05.4,03.6,0686.1,31.1
2021-07-29T05:34:00Z,00000200,00000000,0002.79,0002.18,0001.35,0000.74,0000.20,0000.22,0000.69,0000.63,0000.19,18.4,24.9,05.3,03.6,0686.1,31.1
2021-07-29T05:35:00Z,00000200,00000000,0003.17,0002.64,0001.31,0000.75,0000.29,0000.62,0000.53,0000.14,0000.27,18.5,24.9,05.3,03.6,0686.1,31.1
2021-07-29T05:36:00Z,00000200,00000000,0002.11,0002.20,0000.84,0000.45,0000.56,0000.21,0000.04,0000.11,0000.26,18.4,24.9,05.4,03.7,0686.1,31.1
2021-07-29T05:37:00Z,00000200,00000000,0002.72,0002.15,0000.96,0000.95,0000.51,0000.26,0000.25,0000.33,0000.36,18.4,24.9,05.4,03.6,0686.1,31.1
2021-07-29T05:38:00Z,00000200,00000000,0002.72,0002.04,0000.66,0000.75,0000.28,0000.10,0000.32,0000.38,0000.24,18.4,24.9,05.3,03.6,0686.1,31.0
2021-07-29T05:39:00Z,00000200,00000000,0003.21,0001.76,0000.86,0000.69,0000.20,-000.21,0000.17,0000.14,-000.29,18.4,24.9,05.4,03.6,0686.1,31.0
2021-07-29T05:40:00Z,00000200,00000000,0001.45,0001.44,0000.84,0000.52,0000.65,0000.36,0000.23,0000.17,0000.10,18.4,24.9,05.3,03.6,0686.1,31.0
2021-07-29T05:41:00Z,00000200,00000000,0002.14,0001.50,0000.97,0000.29,0000.23,0000.25,0000.47,0000.49,0000.15,18.4,24.8,05.3,03.6,0686.1,31.1
2021-07-29T05:42:00Z,00000200,00000000,0002.13,0001.71,0000.63,0000.48,0000.49,0000.20,0000.48,0000.31,0000.73,18.3,24.8,05.4,03.6,0686.1,31.0
2021-07-29T05:43:00Z,00000200,00000000,0001.94,0001.59,0000.71,-000.09,0000.51,0000.25,0000.06,-000.10,0000.22,18.3,24.8,05.4,03.6,0686.1,31.0
2021-07-29T05:44:00Z,00000200,00000000,0001.49,0001.31,0000.91,0000.36,0000.33,0000.50,0000.24,0000.50,0000.25,18.3,24.8,05.4,03.6,0686.1,31.0
2021-07-29T05:45:00Z,00000200,00000000,0002.10,0001.90,0000.90,0000.62,0000.28,0000.05,0000.48,0000.65,0000.03,18.3,24.8,05.5,03.7,0686.0,31.0
2021-07-29T05:46:00Z,00000200,00000000,0001.97,0001.39,0000.98,-000.20,0000.43,0000.01,0000.42,0000.32,0000.40,18.3,24.8,05.6,03.8,0686.0,31.0
2021-07-29T05:47:00Z,00000200,00000000,0001.70,0001.19,0000.89,0000.63,0000.09,0000.35,0000.14,0000.04,0000.25,18.4,24.8,05.5,03.7,0686.0,31.1
2021-07-29T05:48:00Z,00000200,00000000,0002.05,0001.72,0000.77,0000.32,0000.14,0000.22,0000.26,0000.38,0000.30,18.4,24.9,05.6,03.8,0686.0,31.1
2021-07-29T05:49:00Z,00000200,00000000,0001.32,0001.61,0000.46,0000.64,0000.31,0000.03,0000.34,0000.11,-000.05,18.4,24.9,05.5,03.7,0685.9,31.1
2021-07-29T05:50:00Z,00000200,00000000,0001.68,0001.38,0000.97,0000.42,0000.15,0000.62,0000.02,0000.05,0000.23,18.4,24.9,05.5,03.7,0685.9,31.1
2021-07-29T05:51:00Z,00000200,00000000,0001.71,0001.68,0000.97,0000.27,0000.27,0000.39,0000.36,0000.37,0000.07,18.5,24.9,05.4,03.7,0685.9,31.1
2021-07-29T05:52:00Z,00000200,00000000,0002.76,0001.94,0000.96,0000.32,0000.26,0000.56,0000.82,0000.76,0000.47,18.4,24.9,05.4,03.7,0685.9,31.1
2021-07-29T05:53:00Z,00000200,00000000,0001.46,0001.65,0000.84,0000.35,0000.24,0000.04,-000.13,-000.49,-000.30,18.4,24.9,05.6,03.8,0686.0,31.0
2021-07-29T05:54:00Z,00000200,00000000,0002.12,0001.49,0000.82,0000.52,0000.24,0000.21,0000.23,0000.34,0000.32,18.4,24.8,05.5,03.7,0685.9,31.0
2021-07-29T05:55:00Z,00000200,00000000,0002.80,0001.76,0001.09,0000.27,0000.35,0000.24,0000.30,0000.07,0000.38,18.4,24.8,05.5,03.7,0685.9,31.0
2021-07-29T05:56:00Z,00000200,00000000,0001.99,0001.76,0000.99,-000.35,0000.37,0000.37,0000.06,0000.13,-000.02,18.4,24.8,05.5,03.7,0685.9,31.0
2021-07-29T05:57:00Z,00000200,40000000,,,,,,,0000.48,0000.71,0000.34,18.4,24.9,04.9,03.3,0685.9,31.0
2021-07-29T05:58:00Z,00000200,60000000,,,,,,,-000.23,-000.03,-000.17,18.1,25.0,05.6,03.7,0684.9,31.0
2021-07-29T05:59:00Z,00000200,20000000,,,,,,,-000.07,-000.32,-000.07,18.1,25.1,05.6,03.6,0684.9,31.1
